Time,TemperatureF,DewpointF,PressureIn,WindDirection,WindDirectionDegrees,WindSpeedMPH,WindSpeedGustMPH,Humidity,HourlyPrecipIn,Conditions,Clouds,dailyrainin,SolarRadiationWatts/m^2,SoftwareType,DateUTC
2013-02-18 00:00:00,40.0,37.9,30.14,ENE,67,0.0,2.0,92,0.00,,---,0.00,0.00,VWS V14.01,2013-02-18 08:00:00,
2013-02-18 00:05:00,40.0,37.9,30.13,East,81,2.0,2.0,92,0.00,,---,0.00,0.00,VWS V14.01,2013-02-18 08:05:00,
2013-02-18 00:10:00,40.0,37.9,30.13,East,88,0.0,2.0,92,0.00,,---,0.00,0.00,VWS V14.01,2013-02-18 08:10:00,
2013-02-18 00:15:00,40.0,37.9,30.13,East,87,1.0,1.0,92,0.00,,---,0.00,0.00,VWS V14.01,2013-02-18 08:15:00,
2013-02-18 00:20:00,39.9,37.8,30.13,East,87,0.0,2.0,92,0.00,,---,0.00,0.00,VWS V14.01,2013-02-18 08:20:00,
2013-02-18 00:25:00,39.8,37.7,30.12,East,96,1.0,2.0,92,0.00,,---,0.00,0.00,VWS V14.01,2013-02-18 08:25:00,
2013-02-18 00:30:00,39.7,37.6,30.12,East,97,2.0,2.0,92,0.00,,---,0.00,0.00,VWS V14.01,2013-02-18 08:30:00,
2013-02-18 00:35:00,39.6,37.5,30.12,East,96,0.0,1.0,92,0.00,,---,0.00,0.00,VWS V14.01,2013-02-18 08:35:00,
2013-02-18 00:40:00,39.5,37.4,30.12,East,95,0.0,1.0,92,0.00,,---,0.00,0.00,VWS V14.01,2013-02-18 08:40:00,
2013-02-18 00:45:00,39.3,37.5,30.11,East,97,0.0,2.0,93,0.00,,---,0.00,0.00,VWS V14.01,2013-02-18 08:45:00,
2013-02-18 00:50:00,39.2,37.3,30.11,East,97,0.0,1.0,93,0.00,,---,0.00,0.00,VWS V14.01,2013-02-18 08:50:00,
2013-02-18 00:55:00,39.1,37.2,30.11,East,84,0.0,1.0,93,0.00,,---,0.00,0.00,VWS V14.01,2013-02-18 08:55:00,
2013-02-18 01:00:00,39.1,37.2,30.11,East,84,0.0,0.0,93,0.00,,---,0.00,0.00,VWS V14.01,2013-02-18 09:00:00,
2013-02-18 01:05:00,39.0,37.2,30.11,East,84,0.0,0.0,93,0.00,,---,0.00,0.00,VWS V14.01,2013-02-18 09:05:00,
2013-02-18 01:10:00,38.9,37.0,30.11,East,84,0.0,0.0,93,0.00,,---,0.00,0.00,VWS V14.01,2013-02-18 09:10:00,
2013-02-18 01:15:00,38.9,37.3,30.11,East,84,0.0,0.0,94,0.00,,---,0.00,0.00,VWS V14.01,2013-02-18 09:15:00,
2013-02-18 01:20:00,39.0,37.4,30.10,East,84,0.0,0.0,94,0.00,,---,0.00,0.00,VWS V14.01,2013-02-18 09:20:00,
2013-02-18 01:25:00,39.1,37.5,30.10,East,84,0.0,0.0,94,0.00,,---,0.00,0.00,VWS V14.01,2013-02-18 09:25:00,
2013-02-18 01:30:00,39.1,37.5,30.10,East,84,0.0,0.0,94,0.00,,---,0.00,0.00,VWS V14.01,2013-02-18 09:30:00,
2013-02-18 01:35:00,39.1,37.5,30.09,East,84,0.0,0.0,94,0.00,,---,0.00,0.00,VWS V14.01,2013-02-18 09:35:00,
2013-02-18 01:40:00,39.0,37.4,30.09,East,84,0.0,0.0,94,0.00,,---,0.00,0.00,VWS V14.01,2013-02-18 09:40:00,
2013-02-18 01:45:00,38.9,37.3,30.09,East,84,0.0,0.0,94,0.00,,---,0.00,0.00,VWS V14.01,2013-02-18 09:45:00,
2013-02-18 01:50:00,38.9,37.3,30.09,East,84,0.0,0.0,94,0.00,,---,0.00,0.00,VWS V14.01,2013-02-18 09:50:00,
2013-02-18 01:55:00,38.8,37.2,30.09,East,84,0.0,0.0,94,0.00,,---,0.00,0.00,VWS V14.01,2013-02-18 09:55:00,
2013-02-18 02:00:00,38.8,37.5,30.09,East,84,0.0,0.0,95,0.00,,---,0.00,0.00,VWS V14.01,2013-02-18 10:00:00,
2013-02-18 02:05:00,38.8,37.2,30.09,East,84,0.0,0.0,94,0.00,,---,0.00,0.00,VWS V14.01,2013-02-18 10:05:00,
2013-02-18 02:10:00,38.8,37.2,30.09,East,84,0.0,0.0,94,0.00,,---,0.00,0.00,VWS V14.01,2013-02-18 10:10:00,
2013-02-18 02:15:00,38.8,37.2,30.09,East,84,0.0,0.0,94,0.00,,---,0.00,0.00,VWS V14.01,2013-02-18 10:15:00,
2013-02-18 02:20:00,38.9,37.6,30.09,East,89,1.0,2.0,95,0.00,,---,0.00,0.00,VWS V14.01,2013-02-18 10:20:00,
2013-02-18 02:25:00,38.9,37.6,30.09,East,94,0.0,1.0,95,0.00,,---,0.00,0.00,VWS V14.01,2013-02-18 10:25:00,
2013-02-18 02:30:00,38.9,37.3,30.08,East,94,0.0,0.0,94,0.00,,---,0.00,0.00,VWS V14.01,2013-02-18 10:30:00,
2013-02-18 02:35:00,38.8,37.2,30.08,East,94,0.0,0.0,94,0.00,,---,0.00,0.00,VWS V14.01,2013-02-18 10:35:00,
2013-02-18 02:40:00,38.6,37.3,30.08,East,94,0.0,0.0,95,0.00,,---,0.00,0.00,VWS V14.01,2013-02-18 10:40:00,
2013-02-18 02:45:00,38.4,37.1,30.08,East,94,0.0,0.0,95,0.00,,---,0.00,0.00,VWS V14.01,2013-02-18 10:45:00,
2013-02-18 02:50:00,38.2,36.9,30.08,East,93,0.0,0.0,95,0.00,,---,0.00,0.00,VWS V14.01,2013-02-18 10:50:00,
2013-02-18 02:55:00,38.2,37.2,30.07,East,93,0.0,0.0,96,0.00,,---,0.00,0.00,VWS V14.01,2013-02-18 10:55:00,
2013-02-18 03:00:00,38.3,37.3,30.07,East,93,0.0,0.0,96,0.00,,---,0.00,0.00,VWS V14.01,2013-02-18 11:00:00,
2013-02-18 03:05:00,38.3,37.0,30.07,East,94,0.0,0.0,95,0.00,,---,0.00,0.00,VWS V14.01,2013-02-18 11:05:00,
2013-02-18 03:10:00,38.3,37.0,30.07,East,94,0.0,0.0,95,0.00,,---,0.00,0.00,VWS V14.01,2013-02-18 11:10:00,
2013-02-18 03:15:00,38.2,37.2,30.07,East,93,0.0,0.0,96,0.00,,---,0.00,0.00,VWS V14.01,2013-02-18 11:15:00,
2013-02-18 03:20:00,38.2,37.2,30.07,East,93,0.0,0.0,96,0.00,,---,0.00,0.00,VWS V14.01,2013-02-18 11:20:00,
2013-02-18 03:25:00,38.2,36.9,30.07,East,94,0.0,0.0,95,0.00,,---,0.00,0.00,VWS V14.01,2013-02-18 11:25:00,
2013-02-18 03:30:00,38.1,36.8,30.06,East,94,0.0,0.0,95,0.00,,---,0.00,0.00,VWS V14.01,2013-02-18 11:30:00,
2013-02-18 03:35:00,38.0,36.7,30.06,East,94,0.0,0.0,95,0.00,,---,0.00,0.00,VWS V14.01,2013-02-18 11:35:00,
2013-02-18 03:40:00,37.9,36.6,30.06,East,94,0.0,1.0,95,0.00,,---,0.00,0.00,VWS V14.01,2013-02-18 11:40:00,
2013-02-18 03:45:00,37.9,36.6,30.06,East,93,0.0,0.0,95,0.00,,---,0.00,0.00,VWS V14.01,2013-02-18 11:45:00,
2013-02-18 03:50:00,38.0,36.7,30.06,East,94,0.0,1.0,95,0.00,,---,0.00,0.00,VWS V14.01,2013-02-18 11:50:00,
2013-02-18 03:55:00,38.0,36.7,30.06,East,93,0.0,0.0,95,0.00,,---,0.00,0.00,VWS V14.01,2013-02-18 11:55:00,
2013-02-18 04:00:00,37.9,36.6,30.05,ENE,74,0.0,1.0,95,0.00,,---,0.00,0.00,VWS V14.01,2013-02-18 12:00:00,
2013-02-18 04:05:00,37.9,36.6,30.05,ENE,74,0.0,0.0,95,0.00,,---,0.00,0.00,VWS V14.01,2013-02-18 12:05:00,
2013-02-18 04:10:00,37.8,36.5,30.05,ENE,74,0.0,1.0,95,0.00,,---,0.00,0.00,VWS V14.01,2013-02-18 12:10:00,
2013-02-18 04:15:00,37.7,36.4,30.05,ENE,73,0.0,0.0,95,0.00,,---,0.00,0.00,VWS V14.01,2013-02-18 12:15:00,
2013-02-18 04:20:00,37.7,36.4,30.05,ENE,74,0.0,0.0,95,0.00,,---,0.00,0.00,VWS V14.01,2013-02-18 12:20:00,
2013-02-18 04:25:00,37.6,36.3,30.05,ENE,73,0.0,0.0,95,0.00,,---,0.00,0.00,VWS V14.01,2013-02-18 12:25:00,
2013-02-18 04:30:00,37.7,36.4,30.05,ENE,73,0.0,0.0,95,0.00,,---,0.00,0.00,VWS V14.01,2013-02-18 12:30:00,
2013-02-18 04:35:00,37.4,36.1,30.04,ENE,74,0.0,0.0,95,0.00,,---,0.00,0.00,VWS V14.01,2013-02-18 12:35:00,
2013-02-18 04:40:00,37.3,36.0,30.04,ENE,74,0.0,0.0,95,0.00,,---,0.00,0.00,VWS V14.01,2013-02-18 12:40:00,
2013-02-18 04:45:00,37.1,35.8,30.04,ENE,73,0.0,0.0,95,0.00,,---,0.00,0.00,VWS V14.01,2013-02-18 12:45:00,
2013-02-18 04:50:00,37.0,35.7,30.03,ENE,74,0.0,1.0,95,0.00,,---,0.00,0.00,VWS V14.01,2013-02-18 12:50:00,
2013-02-18 04:55:00,37.1,36.1,30.04,ENE,73,0.0,0.0,96,0.00,,---,0.00,0.00,VWS V14.01,2013-02-18 12:55:00,
2013-02-18 05:00:00,37.1,36.1,30.03,ENE,73,1.0,1.0,96,0.00,,---,0.00,0.00,VWS V14.01,2013-02-18 13:00:00,
2013-02-18 05:05:00,37.0,35.7,30.03,East,83,0.0,2.0,95,0.00,,---,0.00,0.00,VWS V14.01,2013-02-18 13:05:00,
2013-02-18 05:10:00,37.0,35.7,30.03,East,83,0.0,0.0,95,0.00,,---,0.00,0.00,VWS V14.01,2013-02-18 13:10:00,
2013-02-18 05:15:00,37.0,35.7,30.03,East,80,0.0,2.0,95,0.00,,---,0.00,0.00,VWS V14.01,2013-02-18 13:15:00,
2013-02-18 05:20:00,36.9,35.6,30.03,East,80,0.0,0.0,95,0.00,,---,0.00,0.00,VWS V14.01,2013-02-18 13:20:00,
2013-02-18 05:25:00,36.9,35.6,30.03,East,80,0.0,0.0,95,0.00,,---,0.00,0.00,VWS V14.01,2013-02-18 13:25:00,
2013-02-18 05:26:00,36.8,35.5,30.03,East,80,0.0,0.0,95,0.00,,---,0.00,0.00,VWS V14.01,2013-02-18 13:26:00,
2013-02-18 05:30:00,36.4,35.6,30.02,East,80,0.0,0.0,97,0.00,,---,0.00,0.00,VWS V14.01,2013-02-18 13:30:00,
2013-02-18 05:31:00,36.5,35.2,30.03,East,80,0.0,0.0,95,0.00,,---,0.00,0.00,VWS V14.01,2013-02-18 13:31:00,
2013-02-18 05:35:00,36.5,35.7,30.02,East,80,0.0,0.0,97,0.00,,---,0.00,0.00,VWS V14.01,2013-02-18 13:35:00,
2013-02-18 05:36:00,36.3,35.0,30.03,East,80,0.0,0.0,95,0.00,,---,0.00,0.00,VWS V14.01,2013-02-18 13:36:00,
2013-02-18 05:40:00,36.4,35.4,30.03,East,80,0.0,1.0,96,0.00,,---,0.00,0.00,VWS V14.01,2013-02-18 13:40:00,
2013-02-18 05:41:00,36.5,35.5,30.02,East,80,0.0,2.0,96,0.00,,---,0.00,0.00,VWS V14.01,2013-02-18 13:41:00,
2013-02-18 05:45:00,36.5,35.5,30.02,East,80,0.0,2.0,96,0.00,,---,0.00,0.00,VWS V14.01,2013-02-18 13:45:00,
2013-02-18 05:46:00,36.6,35.6,30.02,East,80,0.0,0.0,96,0.00,,---,0.00,0.00,VWS V14.01,2013-02-18 13:46:00,
2013-02-18 05:50:00,36.6,35.6,30.02,East,80,0.0,0.0,96,0.00,,---,0.00,0.00,VWS V14.01,2013-02-18 13:50:00,
2013-02-18 05:51:00,36.6,35.6,30.02,East,80,0.0,0.0,96,0.00,,---,0.00,0.00,VWS V14.01,2013-02-18 13:51:00,
2013-02-18 05:55:00,36.5,35.7,30.02,East,80,0.0,0.0,97,0.00,,---,0.00,0.00,VWS V14.01,2013-02-18 13:55:00,
2013-02-18 05:56:00,36.8,35.8,30.02,East,80,0.0,0.0,96,0.00,,---,0.00,0.00,VWS V14.01,2013-02-18 13:56:00,
2013-02-18 06:00:00,36.8,36.0,30.02,East,80,0.0,0.0,97,0.00,,---,0.00,0.00,VWS V14.01,2013-02-18 14:00:00,
2013-02-18 06:01:00,36.9,35.9,30.02,East,80,0.0,1.0,96,0.00,,---,0.00,0.00,VWS V14.01,2013-02-18 14:01:00,
2013-02-18 06:05:00,36.9,35.9,30.02,East,80,0.0,1.0,96,0.00,,---,0.00,0.00,VWS V14.01,2013-02-18 14:05:00,
2013-02-18 06:06:00,36.8,35.8,30.02,East,81,0.0,0.0,96,0.00,,---,0.00,0.00,VWS V14.01,2013-02-18 14:06:00,
2013-02-18 06:10:00,36.9,35.9,30.02,East,80,0.0,1.0,96,0.00,,---,0.00,0.00,VWS V14.01,2013-02-18 14:10:00,
2013-02-18 06:11:00,36.8,35.8,30.02,East,80,0.0,0.0,96,0.00,,---,0.00,0.00,VWS V14.01,2013-02-18 14:11:00,
2013-02-18 06:15:00,36.7,35.7,30.02,East,80,0.0,0.0,96,0.00,,---,0.00,0.00,VWS V14.01,2013-02-18 14:15:00,
2013-02-18 06:16:00,36.6,35.6,30.02,East,80,0.0,0.0,96,0.00,,---,0.00,0.00,VWS V14.01,2013-02-18 14:16:00,
2013-02-18 06:20:00,36.6,35.8,30.01,East,81,0.0,0.0,97,0.00,,---,0.00,5.00,VWS V14.01,2013-02-18 14:20:00,
2013-02-18 06:21:00,36.5,35.7,30.02,East,80,0.0,0.0,97,0.00,,---,0.00,0.00,VWS V14.01,2013-02-18 14:21:00,
2013-02-18 06:25:00,36.6,35.8,30.01,East,81,0.0,0.0,97,0.00,,---,0.00,7.00,VWS V14.01,2013-02-18 14:25:00,
2013-02-18 06:26:00,36.4,35.6,30.02,East,80,0.0,0.0,97,0.00,,---,0.00,0.00,VWS V14.01,2013-02-18 14:26:00,
2013-02-18 06:30:00,36.7,35.9,30.01,East,80,0.0,0.0,97,0.00,,---,0.00,9.00,VWS V14.01,2013-02-18 14:30:00,
2013-02-18 06:31:00,36.5,35.7,30.02,East,80,0.0,0.0,97,0.00,,---,0.00,0.00,VWS V14.01,2013-02-18 14:31:00,
2013-02-18 06:35:00,36.5,35.7,30.02,East,80,0.0,0.0,97,0.00,,---,0.00,0.00,VWS V14.01,2013-02-18 14:35:00,
2013-02-18 06:36:00,36.5,35.7,30.02,East,81,0.0,0.0,97,0.00,,---,0.00,0.00,VWS V14.01,2013-02-18 14:36:00,
2013-02-18 06:40:00,36.5,35.7,30.02,East,80,0.0,0.0,97,0.00,,---,0.00,0.00,VWS V14.01,2013-02-18 14:40:00,
2013-02-18 06:41:00,36.4,35.6,30.01,East,80,0.0,0.0,97,0.00,,---,0.00,0.00,VWS V14.01,2013-02-18 14:41:00,
2013-02-18 06:45:00,36.4,35.6,30.02,East,80,0.0,0.0,97,0.00,,---,0.00,0.00,VWS V14.01,2013-02-18 14:45:00,
2013-02-18 06:46:00,36.4,35.6,30.01,East,80,0.0,0.0,97,0.00,,---,0.00,0.00,VWS V14.01,2013-02-18 14:46:00,
2013-02-18 06:50:00,36.5,35.7,30.02,East,80,0.0,0.0,97,0.00,,---,0.00,0.00,VWS V14.01,2013-02-18 14:50:00,
2013-02-18 06:51:00,36.5,35.7,30.01,East,80,0.0,0.0,97,0.00,,---,0.00,0.00,VWS V14.01,2013-02-18 14:51:00,
2013-02-18 06:55:00,36.5,35.7,30.02,East,80,0.0,0.0,97,0.00,,---,0.00,0.00,VWS V14.01,2013-02-18 14:55:00,
2013-02-18 06:56:00,36.5,35.7,30.02,East,81,0.0,0.0,97,0.00,,---,0.00,0.00,VWS V14.01,2013-02-18 14:56:00,
2013-02-18 07:00:00,36.5,35.7,30.02,East,80,0.0,0.0,97,0.00,,---,0.00,0.00,VWS V14.01,2013-02-18 15:00:00,
2013-02-18 07:01:00,36.5,35.7,30.01,East,80,0.0,0.0,97,0.00,,---,0.00,0.00,VWS V14.01,2013-02-18 15:01:00,
2013-02-18 07:05:00,36.5,35.7,30.01,East,80,0.0,0.0,97,0.00,,---,0.00,0.00,VWS V14.01,2013-02-18 15:05:00,
2013-02-18 07:06:00,36.5,35.7,30.01,East,81,0.0,0.0,97,0.00,,---,0.00,0.00,VWS V14.01,2013-02-18 15:06:00,
2013-02-18 07:10:00,36.5,35.7,30.01,East,81,0.0,0.0,97,0.00,,---,0.00,0.00,VWS V14.01,2013-02-18 15:10:00,
2013-02-18 07:11:00,36.6,35.8,30.01,East,80,0.0,0.0,97,0.00,,---,0.00,0.00,VWS V14.01,2013-02-18 15:11:00,
2013-02-18 07:15:00,36.6,35.8,30.01,East,80,0.0,0.0,97,0.00,,---,0.00,0.00,VWS V14.01,2013-02-18 15:15:00,
2013-02-18 07:16:00,36.6,35.8,30.02,East,80,0.0,0.0,97,0.00,,---,0.00,0.00,VWS V14.01,2013-02-18 15:16:00,
2013-02-18 07:20:00,36.6,35.8,30.01,East,81,0.0,0.0,97,0.00,,---,0.00,5.00,VWS V14.01,2013-02-18 15:20:00,
2013-02-18 07:21:00,36.6,35.8,30.01,East,81,0.0,0.0,97,0.00,,---,0.00,5.00,VWS V14.01,2013-02-18 15:21:00,
2013-02-18 07:25:00,36.6,35.8,30.01,East,81,0.0,0.0,97,0.00,,---,0.00,7.00,VWS V14.01,2013-02-18 15:25:00,
2013-02-18 07:26:00,36.7,35.9,30.01,East,80,0.0,0.0,97,0.00,,---,0.00,9.00,VWS V14.01,2013-02-18 15:26:00,
2013-02-18 07:30:00,36.7,35.9,30.01,East,80,0.0,0.0,97,0.00,,---,0.00,9.00,VWS V14.01,2013-02-18 15:30:00,
2013-02-18 07:31:00,36.8,36.0,30.01,East,80,0.0,0.0,97,0.00,,---,0.00,11.00,VWS V14.01,2013-02-18 15:31:00,
2013-02-18 07:35:00,36.8,36.0,30.01,East,80,0.0,0.0,97,0.00,,---,0.00,12.00,VWS V14.01,2013-02-18 15:35:00,
2013-02-18 07:36:00,36.9,36.4,30.01,East,80,0.0,0.0,98,0.00,,---,0.00,14.00,VWS V14.01,2013-02-18 15:36:00,
2013-02-18 07:40:00,37.9,37.1,30.01,East,80,0.0,0.0,97,0.00,,---,0.00,40.00,VWS V14.01,2013-02-18 15:40:00,
2013-02-18 07:41:00,37.0,36.5,30.01,East,80,0.0,0.0,98,0.00,,---,0.00,16.00,VWS V14.01,2013-02-18 15:41:00,
2013-02-18 07:45:00,37.0,36.5,30.01,East,80,0.0,0.0,98,0.00,,---,0.00,18.00,VWS V14.01,2013-02-18 15:45:00,
2013-02-18 07:46:00,37.0,36.5,30.02,East,81,0.0,1.0,98,0.00,,---,0.00,18.00,VWS V14.01,2013-02-18 15:46:00,
2013-02-18 07:50:00,37.0,36.5,30.01,East,81,0.0,1.0,98,0.00,,---,0.00,19.00,VWS V14.01,2013-02-18 15:50:00,
2013-02-18 07:51:00,37.1,36.3,30.01,East,80,0.0,0.0,97,0.00,,---,0.00,23.00,VWS V14.01,2013-02-18 15:51:00,
2013-02-18 07:55:00,37.1,36.3,30.01,East,80,0.0,0.0,97,0.00,,---,0.00,25.00,VWS V14.01,2013-02-18 15:55:00,
2013-02-18 07:56:00,37.1,36.3,30.01,East,80,0.0,0.0,97,0.00,,---,0.00,30.00,VWS V14.01,2013-02-18 15:56:00,
2013-02-18 08:00:00,37.1,36.3,30.01,East,80,0.0,0.0,97,0.00,,---,0.00,30.00,VWS V14.01,2013-02-18 16:00:00,
2013-02-18 08:01:00,37.1,36.3,30.01,East,80,0.0,0.0,97,0.00,,---,0.00,32.00,VWS V14.01,2013-02-18 16:01:00,
2013-02-18 08:05:00,37.2,36.4,30.01,East,80,0.0,0.0,97,0.00,,---,0.00,30.00,VWS V14.01,2013-02-18 16:05:00,
2013-02-18 08:06:00,37.3,36.5,30.01,East,80,0.0,0.0,97,0.00,,---,0.00,32.00,VWS V14.01,2013-02-18 16:06:00,
2013-02-18 08:10:00,37.3,36.5,30.01,East,80,0.0,0.0,97,0.00,,---,0.00,33.00,VWS V14.01,2013-02-18 16:10:00,
2013-02-18 08:11:00,37.4,36.6,30.01,East,80,0.0,1.0,97,0.00,,---,0.00,39.00,VWS V14.01,2013-02-18 16:11:00,
2013-02-18 08:15:00,37.4,36.6,30.02,East,81,0.0,1.0,97,0.00,,---,0.00,37.00,VWS V14.01,2013-02-18 16:15:00,
2013-02-18 08:16:00,37.5,36.7,30.02,East,80,0.0,1.0,97,0.00,,---,0.00,37.00,VWS V14.01,2013-02-18 16:16:00,
2013-02-18 08:20:00,37.5,36.7,30.02,East,81,0.0,1.0,97,0.00,,---,0.00,39.00,VWS V14.01,2013-02-18 16:20:00,
2013-02-18 08:21:00,37.5,36.7,30.02,East,81,0.0,0.0,97,0.00,,---,0.00,44.00,VWS V14.01,2013-02-18 16:21:00,
2013-02-18 08:25:00,37.5,36.7,30.02,East,80,0.0,0.0,97,0.00,,---,0.00,47.00,VWS V14.01,2013-02-18 16:25:00,
2013-02-18 08:26:00,37.7,36.9,30.01,East,80,0.0,0.0,97,0.00,,---,0.00,51.00,VWS V14.01,2013-02-18 16:26:00,
2013-02-18 08:30:00,37.8,37.0,30.01,East,80,0.0,0.0,97,0.00,,---,0.00,47.00,VWS V14.01,2013-02-18 16:30:00,
2013-02-18 08:31:00,37.8,37.0,30.01,East,80,0.0,0.0,97,0.00,,---,0.00,44.00,VWS V14.01,2013-02-18 16:31:00,
2013-02-18 08:35:00,37.8,37.0,30.01,East,80,0.0,0.0,97,0.00,,---,0.00,42.00,VWS V14.01,2013-02-18 16:35:00,
2013-02-18 08:36:00,37.9,37.1,30.01,East,80,0.0,0.0,97,0.00,,---,0.00,40.00,VWS V14.01,2013-02-18 16:36:00,
2013-02-18 08:40:00,37.9,37.1,30.01,East,80,0.0,0.0,97,0.00,,---,0.00,40.00,VWS V14.01,2013-02-18 16:40:00,
2013-02-18 08:41:00,37.9,37.1,30.02,East,80,0.0,0.0,97,0.00,,---,0.00,37.00,VWS V14.01,2013-02-18 16:41:00,
2013-02-18 08:45:00,40.2,37.8,29.99,East,80,2.0,3.0,91,0.00,,---,0.00,169.00,VWS V14.01,2013-02-18 16:45:00,
2013-02-18 08:46:00,38.2,37.4,30.01,East,80,1.0,1.0,97,0.00,,---,0.00,40.00,VWS V14.01,2013-02-18 16:46:00,
2013-02-18 08:50:00,40.2,37.8,29.99,ENE,66,1.0,3.0,91,0.00,,---,0.00,156.00,VWS V14.01,2013-02-18 16:50:00,
2013-02-18 08:51:00,38.3,37.5,30.01,East,81,1.0,3.0,97,0.00,,---,0.00,51.00,VWS V14.01,2013-02-18 16:51:00,
2013-02-18 08:55:00,40.2,37.8,29.99,SE,124,0.0,3.0,91,0.00,,---,0.00,169.00,VWS V14.01,2013-02-18 16:55:00,
2013-02-18 08:56:00,38.4,37.6,30.01,East,96,0.0,0.0,97,0.00,,---,0.00,60.00,VWS V14.01,2013-02-18 16:56:00,
2013-02-18 09:00:00,38.5,37.7,30.01,East,96,0.0,1.0,97,0.00,,---,0.00,65.00,VWS V14.01,2013-02-18 17:00:00,
2013-02-18 09:01:00,38.7,37.7,30.01,East,95,0.0,2.0,96,0.00,,---,0.00,83.00,VWS V14.01,2013-02-18 17:01:00,
2013-02-18 09:05:00,38.8,37.8,30.01,East,95,0.0,2.0,96,0.00,,---,0.00,90.00,VWS V14.01,2013-02-18 17:05:00,
2013-02-18 09:06:00,38.9,37.9,30.01,East,93,2.0,2.0,96,0.00,,---,0.00,93.00,VWS V14.01,2013-02-18 17:06:00,
2013-02-18 09:10:00,38.9,37.9,30.01,East,93,2.0,2.0,96,0.00,,---,0.00,93.00,VWS V14.01,2013-02-18 17:10:00,
2013-02-18 09:11:00,39.0,37.7,30.01,East,93,0.0,2.0,95,0.00,,---,0.00,100.00,VWS V14.01,2013-02-18 17:11:00,
2013-02-18 09:15:00,39.1,37.8,30.01,East,92,1.0,2.0,95,0.00,,---,0.00,105.00,VWS V14.01,2013-02-18 17:15:00,
2013-02-18 09:16:00,39.2,37.9,30.00,East,89,1.0,3.0,95,0.00,,---,0.00,134.00,VWS V14.01,2013-02-18 17:16:00,
2013-02-18 09:20:00,39.2,37.9,30.00,East,92,1.0,3.0,95,0.00,,---,0.00,139.00,VWS V14.01,2013-02-18 17:20:00,
2013-02-18 09:21:00,39.5,37.9,30.00,East,92,0.0,1.0,94,0.00,,---,0.00,160.00,VWS V14.01,2013-02-18 17:21:00,
2013-02-18 09:25:00,39.5,37.9,30.00,East,92,1.0,2.0,94,0.00,,---,0.00,165.00,VWS V14.01,2013-02-18 17:25:00,
2013-02-18 09:26:00,39.7,38.1,30.00,ENE,74,1.0,2.0,94,0.00,,---,0.00,179.00,VWS V14.01,2013-02-18 17:26:00,
2013-02-18 09:30:00,39.8,38.2,30.00,ENE,73,0.0,2.0,94,0.00,,---,0.00,185.00,VWS V14.01,2013-02-18 17:30:00,
2013-02-18 09:31:00,40.0,38.1,30.00,East,100,0.0,2.0,93,0.00,,---,0.00,188.00,VWS V14.01,2013-02-18 17:31:00,
2013-02-18 09:35:00,40.1,38.2,30.00,East,101,0.0,2.0,93,0.00,,---,0.00,190.00,VWS V14.01,2013-02-18 17:35:00,
2013-02-18 09:36:00,40.2,38.1,30.00,East,88,2.0,4.0,92,0.00,,---,0.00,193.00,VWS V14.01,2013-02-18 17:36:00,
2013-02-18 09:40:00,40.2,37.8,29.99,East,88,0.0,4.0,91,0.00,,---,0.00,188.00,VWS V14.01,2013-02-18 17:40:00,
2013-02-18 09:41:00,40.2,37.8,29.99,East,79,0.0,3.0,91,0.00,,---,0.00,174.00,VWS V14.01,2013-02-18 17:41:00,
2013-02-18 09:45:00,40.2,37.8,29.99,East,80,2.0,3.0,91,0.00,,---,0.00,169.00,VWS V14.01,2013-02-18 17:45:00,
2013-02-18 09:46:00,40.2,37.8,29.99,East,86,1.0,3.0,91,0.00,,---,0.00,156.00,VWS V14.01,2013-02-18 17:46:00,
2013-02-18 09:50:00,40.2,37.8,29.99,ENE,66,1.0,3.0,91,0.00,,---,0.00,156.00,VWS V14.01,2013-02-18 17:50:00,
2013-02-18 09:51:00,40.2,37.8,29.99,ESE,110,0.0,3.0,91,0.00,,---,0.00,167.00,VWS V14.01,2013-02-18 17:51:00,
2013-02-18 09:55:00,40.2,37.8,29.99,SE,124,0.0,3.0,91,0.00,,---,0.00,169.00,VWS V14.01,2013-02-18 17:55:00,
2013-02-18 09:56:00,40.4,38.0,29.99,SSE,158,0.0,1.0,91,0.00,,---,0.00,202.00,VWS V14.01,2013-02-18 17:56:00,
2013-02-18 10:00:00,40.3,37.6,29.99,SSE,159,0.0,1.0,90,0.00,,---,0.00,213.00,VWS V14.01,2013-02-18 18:00:00,
2013-02-18 10:01:00,40.4,37.7,29.99,ESE,116,1.0,2.0,90,0.00,,---,0.00,171.00,VWS V14.01,2013-02-18 18:01:00,
2013-02-18 10:05:00,40.5,37.8,29.99,ESE,123,1.0,2.0,90,0.00,,---,0.00,165.00,VWS V14.01,2013-02-18 18:05:00,
2013-02-18 10:06:00,40.5,37.8,29.99,ESE,113,0.0,3.0,90,0.00,,---,0.00,142.00,VWS V14.01,2013-02-18 18:06:00,
2013-02-18 10:10:00,40.5,37.8,29.99,SSE,165,1.0,3.0,90,0.00,,---,0.00,142.00,VWS V14.01,2013-02-18 18:10:00,
2013-02-18 10:11:00,40.6,37.9,29.99,ENE,57,0.0,3.0,90,0.00,,---,0.00,151.00,VWS V14.01,2013-02-18 18:11:00,
2013-02-18 10:15:00,40.7,38.0,29.99,SSW,196,3.0,3.0,90,0.00,,---,0.00,146.00,VWS V14.01,2013-02-18 18:15:00,
2013-02-18 10:16:00,40.9,37.9,29.99,ENE,71,2.0,3.0,89,0.00,,---,0.00,132.00,VWS V14.01,2013-02-18 18:16:00,
2013-02-18 10:20:00,40.9,37.9,29.99,ENE,71,0.0,3.0,89,0.00,,---,0.00,107.00,VWS V14.01,2013-02-18 18:20:00,
2013-02-18 10:21:00,40.9,37.9,29.99,ESE,118,1.0,3.0,89,0.00,,---,0.00,93.00,VWS V14.01,2013-02-18 18:21:00,
2013-02-18 10:25:00,40.9,38.2,30.00,ESE,119,0.0,3.0,90,0.00,,---,0.00,91.00,VWS V14.01,2013-02-18 18:25:00,
2013-02-18 10:26:00,40.9,37.9,30.00,ESE,118,1.0,1.0,89,0.00,,---,0.00,58.00,VWS V14.01,2013-02-18 18:26:00,
2013-02-18 10:30:00,40.9,37.9,29.99,ESE,118,1.0,2.0,89,0.00,,---,0.00,51.00,VWS V14.01,2013-02-18 18:30:00,
2013-02-18 10:31:00,40.9,38.2,29.99,SSW,196,2.0,3.0,90,0.00,,---,0.00,56.00,VWS V14.01,2013-02-18 18:31:00,
2013-02-18 10:35:00,40.9,37.9,29.99,SSW,196,2.0,3.0,89,0.00,,---,0.00,69.00,VWS V14.01,2013-02-18 18:35:00,
2013-02-18 10:36:00,40.9,37.9,29.99,West,261,0.0,2.0,89,0.00,,---,0.00,146.00,VWS V14.01,2013-02-18 18:36:00,
2013-02-18 10:40:00,41.0,38.0,29.99,West,261,0.0,2.0,89,0.00,,---,0.00,151.00,VWS V14.01,2013-02-18 18:40:00,
2013-02-18 10:41:00,41.1,38.1,29.99,West,261,0.0,0.0,89,0.00,,---,0.00,169.00,VWS V14.01,2013-02-18 18:41:00,
2013-02-18 10:45:00,41.1,38.1,29.99,West,261,0.0,0.0,89,0.00,,---,0.00,174.00,VWS V14.01,2013-02-18 18:45:00,
2013-02-18 10:46:00,41.2,37.9,29.98,SSW,200,0.0,2.0,88,0.00,,---,0.00,209.00,VWS V14.01,2013-02-18 18:46:00,
2013-02-18 10:50:00,41.3,38.0,29.98,SSW,200,0.0,2.0,88,0.00,,---,0.00,211.00,VWS V14.01,2013-02-18 18:50:00,
2013-02-18 10:51:00,41.6,38.3,29.98,SSW,200,0.0,0.0,88,0.00,,---,0.00,216.00,VWS V14.01,2013-02-18 18:51:00,
2013-02-18 10:55:00,41.6,38.0,29.98,SSW,200,0.0,0.0,87,0.00,,---,0.00,220.00,VWS V14.01,2013-02-18 18:55:00,
2013-02-18 10:56:00,41.8,38.2,29.98,SSW,205,2.0,2.0,87,0.00,,---,0.00,279.00,VWS V14.01,2013-02-18 18:56:00,
2013-02-18 11:00:00,41.9,38.0,29.98,SSW,205,2.0,2.0,86,0.00,,---,0.00,292.00,VWS V14.01,2013-02-18 19:00:00,
2013-02-18 11:01:00,42.0,38.1,29.98,SW,232,1.0,4.0,86,0.00,,---,0.00,281.00,VWS V14.01,2013-02-18 19:01:00,
2013-02-18 11:05:00,42.0,38.1,29.98,SW,232,1.0,4.0,86,0.00,,---,0.00,276.00,VWS V14.01,2013-02-18 19:05:00,
2013-02-18 11:06:00,42.1,37.6,29.98,SSW,195,3.0,4.0,84,0.00,,---,0.00,248.00,VWS V14.01,2013-02-18 19:06:00,
2013-02-18 11:10:00,42.1,37.6,29.98,SW,223,3.0,4.0,84,0.00,,---,0.00,244.00,VWS V14.01,2013-02-18 19:10:00,
2013-02-18 11:11:00,42.0,36.9,29.98,SW,215,1.0,5.0,82,0.00,,---,0.00,248.00,VWS V14.01,2013-02-18 19:11:00,
2013-02-18 11:15:00,42.0,37.2,29.98,SSW,200,4.0,5.0,83,0.00,,---,0.00,243.00,VWS V14.01,2013-02-18 19:15:00,
2013-02-18 11:16:00,42.0,37.2,29.98,South,181,3.0,4.0,83,0.00,,---,0.00,209.00,VWS V14.01,2013-02-18 19:16:00,
2013-02-18 11:20:00,42.0,37.2,29.98,South,181,3.0,4.0,83,0.00,,---,0.00,209.00,VWS V14.01,2013-02-18 19:20:00,
2013-02-18 11:21:00,42.0,36.9,29.98,South,171,4.0,6.0,82,0.00,,---,0.00,214.00,VWS V14.01,2013-02-18 19:21:00,
2013-02-18 11:25:00,42.1,37.3,29.98,SSW,194,5.0,7.0,83,0.00,,---,0.00,214.00,VWS V14.01,2013-02-18 19:25:00,
2013-02-18 11:26:00,42.0,37.2,29.98,South,177,6.0,6.0,83,0.00,,---,0.00,206.00,VWS V14.01,2013-02-18 19:26:00,
2013-02-18 11:30:00,42.0,36.9,29.98,SSE,150,4.0,6.0,82,0.00,,---,0.00,207.00,VWS V14.01,2013-02-18 19:30:00,
2013-02-18 11:31:00,42.0,36.9,29.97,SSE,167,0.0,5.0,82,0.00,,---,0.00,248.00,VWS V14.01,2013-02-18 19:31:00,
2013-02-18 11:35:00,43.2,38.1,29.95,SSW,192,4.0,5.0,82,0.00,,---,0.00,225.00,VWS V14.01,2013-02-18 19:35:00,
2013-02-18 11:37:00,42.3,37.5,29.97,SSW,192,3.0,4.0,83,0.00,,---,0.00,251.00,VWS V14.01,2013-02-18 19:37:00,
2013-02-18 11:40:00,42.3,37.5,29.97,SSW,192,3.0,4.0,83,0.00,,---,0.00,251.00,VWS V14.01,2013-02-18 19:40:00,
2013-02-18 11:42:00,42.4,37.3,29.97,South,179,3.0,4.0,82,0.00,,---,0.00,239.00,VWS V14.01,2013-02-18 19:42:00,
2013-02-18 11:45:00,42.3,37.2,29.97,SSW,194,4.0,4.0,82,0.00,,---,0.00,239.00,VWS V14.01,2013-02-18 19:45:00,
2013-02-18 11:47:00,42.5,37.7,29.97,SSE,161,0.0,5.0,83,0.00,,---,0.00,227.00,VWS V14.01,2013-02-18 19:47:00,
2013-02-18 11:50:00,42.6,37.8,29.97,SSE,161,0.0,5.0,83,0.00,,---,0.00,227.00,VWS V14.01,2013-02-18 19:50:00,
2013-02-18 11:52:00,42.8,38.0,29.97,SW,221,3.0,5.0,83,0.00,,---,0.00,214.00,VWS V14.01,2013-02-18 19:52:00,
2013-02-18 11:55:00,43.3,37.2,29.94,SSE,165,4.0,5.0,79,0.00,,---,0.00,197.00,VWS V14.01,2013-02-18 19:55:00,
2013-02-18 11:57:00,42.6,37.5,29.96,South,182,1.0,3.0,82,0.00,,---,0.00,211.00,VWS V14.01,2013-02-18 19:57:00,
2013-02-18 12:00:00,42.7,37.6,29.96,South,182,2.0,3.0,82,0.00,,---,0.00,211.00,VWS V14.01,2013-02-18 20:00:00,
2013-02-18 12:02:00,42.9,37.8,29.96,SSW,205,3.0,4.0,82,0.00,,---,0.00,220.00,VWS V14.01,2013-02-18 20:02:00,
2013-02-18 12:05:00,42.9,37.8,29.96,South,175,3.0,4.0,82,0.00,,---,0.00,220.00,VWS V14.01,2013-02-18 20:05:00,
2013-02-18 12:07:00,42.7,37.6,29.96,WSW,248,3.0,5.0,82,0.00,,---,0.00,223.00,VWS V14.01,2013-02-18 20:07:00,
2013-02-18 12:10:00,42.7,37.6,29.96,WSW,248,2.0,5.0,82,0.00,,---,0.00,223.00,VWS V14.01,2013-02-18 20:10:00,
2013-02-18 12:12:00,42.8,37.4,29.96,SW,218,3.0,5.0,81,0.00,,---,0.00,186.00,VWS V14.01,2013-02-18 20:12:00,
2013-02-18 12:15:00,42.8,37.4,29.96,SW,218,3.0,5.0,81,0.00,,---,0.00,186.00,VWS V14.01,2013-02-18 20:15:00,
2013-02-18 12:17:00,42.8,37.4,29.96,WSW,249,1.0,6.0,81,0.00,,---,0.00,171.00,VWS V14.01,2013-02-18 20:17:00,
2013-02-18 12:20:00,42.8,37.4,29.96,WSW,248,2.0,6.0,81,0.00,,---,0.00,171.00,VWS V14.01,2013-02-18 20:20:00,
2013-02-18 12:22:00,42.8,38.0,29.96,SW,221,0.0,0.0,83,0.00,,---,0.00,193.00,VWS V14.01,2013-02-18 20:22:00,
2013-02-18 12:25:00,42.7,37.9,29.96,SW,221,0.0,5.0,83,0.00,,---,0.00,193.00,VWS V14.01,2013-02-18 20:25:00,
2013-02-18 12:27:00,43.1,38.3,29.95,SSW,193,4.0,5.0,83,0.00,,---,0.00,216.00,VWS V14.01,2013-02-18 20:27:00,
2013-02-18 12:30:00,43.1,38.3,29.95,SSW,196,4.0,5.0,83,0.00,,---,0.00,216.00,VWS V14.01,2013-02-18 20:30:00,
2013-02-18 12:32:00,43.2,38.1,29.95,SSW,194,4.0,4.0,82,0.00,,---,0.00,223.00,VWS V14.01,2013-02-18 20:32:00,
2013-02-18 12:35:00,43.2,38.1,29.95,SSW,192,4.0,5.0,82,0.00,,---,0.00,225.00,VWS V14.01,2013-02-18 20:35:00,
2013-02-18 12:37:00,43.1,37.7,29.95,SSW,195,6.0,7.0,81,0.00,,---,0.00,200.00,VWS V14.01,2013-02-18 20:37:00,
2013-02-18 12:40:00,43.1,37.7,29.95,SSW,195,6.0,7.0,81,0.00,,---,0.00,200.00,VWS V14.01,2013-02-18 20:40:00,
2013-02-18 12:42:00,43.2,37.5,29.95,SSW,213,3.0,3.0,80,0.00,,---,0.00,192.00,VWS V14.01,2013-02-18 20:42:00,
2013-02-18 12:45:00,43.2,37.5,29.95,SW,218,2.0,6.0,80,0.00,,---,0.00,192.00,VWS V14.01,2013-02-18 20:45:00,
2013-02-18 12:47:00,43.3,37.9,29.95,SSW,211,3.0,4.0,81,0.00,,---,0.00,192.00,VWS V14.01,2013-02-18 20:47:00,
2013-02-18 12:50:00,43.3,37.9,29.94,SSW,209,4.0,4.0,81,0.00,,---,0.00,192.00,VWS V14.01,2013-02-18 20:50:00,
2013-02-18 12:52:00,43.3,37.2,29.94,SSW,200,2.0,4.0,79,0.00,,---,0.00,197.00,VWS V14.01,2013-02-18 20:52:00,
2013-02-18 12:55:00,44.0,36.6,29.93,WSW,258,3.0,10.0,75,0.00,,---,0.00,253.00,VWS V14.01,2013-02-18 20:55:00,
2013-02-18 12:57:00,43.2,37.1,29.94,SW,216,3.0,3.0,79,0.00,,---,0.00,192.00,VWS V14.01,2013-02-18 20:57:00,
2013-02-18 13:00:00,43.2,37.1,29.94,SW,228,3.0,7.0,79,0.00,,---,0.00,192.00,VWS V14.01,2013-02-18 21:00:00,
2013-02-18 13:02:00,43.3,37.2,29.94,SSW,198,4.0,4.0,79,0.00,,---,0.00,195.00,VWS V14.01,2013-02-18 21:02:00,
2013-02-18 13:05:00,43.3,37.2,29.94,South,183,4.0,5.0,79,0.00,,---,0.00,195.00,VWS V14.01,2013-02-18 21:05:00,
2013-02-18 13:07:00,43.4,37.3,29.94,SSW,211,5.0,5.0,79,0.00,,---,0.00,206.00,VWS V14.01,2013-02-18 21:07:00,
2013-02-18 13:10:00,43.4,37.3,29.94,South,188,4.0,5.0,79,0.00,,---,0.00,207.00,VWS V14.01,2013-02-18 21:10:00,
2013-02-18 13:12:00,43.4,37.7,29.94,SW,220,4.0,4.0,80,0.00,,---,0.00,221.00,VWS V14.01,2013-02-18 21:12:00,
2013-02-18 13:15:00,43.4,37.7,29.94,SW,229,3.0,6.0,80,0.00,,---,0.00,216.00,VWS V14.01,2013-02-18 21:15:00,
2013-02-18 13:17:00,43.6,37.5,29.94,South,188,4.0,4.0,79,0.00,,---,0.00,239.00,VWS V14.01,2013-02-18 21:17:00,
2013-02-18 13:20:00,43.5,37.4,29.94,SW,217,4.0,5.0,79,0.00,,---,0.00,239.00,VWS V14.01,2013-02-18 21:20:00,
2013-02-18 13:22:00,43.7,37.3,29.94,SW,230,5.0,6.0,78,0.00,,---,0.00,227.00,VWS V14.01,2013-02-18 21:22:00,
2013-02-18 13:25:00,43.6,37.2,29.94,SW,236,3.0,4.0,78,0.00,,---,0.00,227.00,VWS V14.01,2013-02-18 21:25:00,
2013-02-18 13:27:00,43.9,37.5,29.93,SW,222,4.0,6.0,78,0.00,,---,0.00,220.00,VWS V14.01,2013-02-18 21:27:00,
2013-02-18 13:30:00,43.9,37.8,29.94,WSW,242,6.0,6.0,79,0.00,,---,0.00,220.00,VWS V14.01,2013-02-18 21:30:00,
2013-02-18 13:32:00,43.9,37.5,29.93,SW,227,7.0,7.0,78,0.00,,---,0.00,174.00,VWS V14.01,2013-02-18 21:32:00,
2013-02-18 13:35:00,43.9,37.8,29.94,WSW,251,4.0,6.0,79,0.00,,---,0.00,174.00,VWS V14.01,2013-02-18 21:35:00,
2013-02-18 13:38:00,43.7,36.6,29.93,WSW,250,5.0,6.0,76,0.00,,---,0.00,192.00,VWS V14.01,2013-02-18 21:38:00,
2013-02-18 13:40:00,43.7,37.0,29.93,SW,236,6.0,8.0,77,0.00,,---,0.00,192.00,VWS V14.01,2013-02-18 21:40:00,
2013-02-18 13:43:00,43.7,36.6,29.93,WSW,242,4.0,4.0,76,0.00,,---,0.00,250.00,VWS V14.01,2013-02-18 21:43:00,
2013-02-18 13:45:00,43.7,36.6,29.93,SW,229,2.0,8.0,76,0.00,,---,0.00,234.00,VWS V14.01,2013-02-18 21:45:00,
2013-02-18 13:48:00,44.0,36.6,29.93,SW,221,6.0,7.0,75,0.00,,---,0.00,276.00,VWS V14.01,2013-02-18 21:48:00,
2013-02-18 13:50:00,44.0,36.6,29.93,SW,225,5.0,7.0,75,0.00,,---,0.00,278.00,VWS V14.01,2013-02-18 21:50:00,
2013-02-18 13:53:00,44.0,36.6,29.93,WSW,255,7.0,7.0,75,0.00,,---,0.00,239.00,VWS V14.01,2013-02-18 21:53:00,
2013-02-18 13:55:00,44.0,36.6,29.93,WSW,258,3.0,10.0,75,0.00,,---,0.00,253.00,VWS V14.01,2013-02-18 21:55:00,
2013-02-18 13:58:00,44.1,36.7,29.93,WSW,244,5.0,5.0,75,0.00,,---,0.00,258.00,VWS V14.01,2013-02-18 21:58:00,
2013-02-18 14:00:00,44.1,37.0,29.93,WSW,250,4.0,8.0,76,0.00,,---,0.00,244.00,VWS V14.01,2013-02-18 22:00:00,
2013-02-18 14:03:00,44.1,37.0,29.93,South,187,3.0,4.0,76,0.00,,---,0.00,221.00,VWS V14.01,2013-02-18 22:03:00,
2013-02-18 14:05:00,44.1,36.7,29.93,SW,230,3.0,7.0,75,0.00,,---,0.00,232.00,VWS V14.01,2013-02-18 22:05:00,
2013-02-18 14:08:00,44.0,36.6,29.92,WSW,242,3.0,6.0,75,0.00,,---,0.00,195.00,VWS V14.01,2013-02-18 22:08:00,
2013-02-18 14:10:00,44.0,36.3,29.92,SW,220,4.0,9.0,74,0.00,,---,0.00,195.00,VWS V14.01,2013-02-18 22:10:00,
2013-02-18 14:13:00,44.0,37.3,29.92,WSW,240,2.0,4.0,77,0.00,,---,0.00,179.00,VWS V14.01,2013-02-18 22:13:00,
2013-02-18 14:15:00,43.9,36.5,29.92,SW,219,4.0,10.0,75,0.00,,---,0.00,179.00,VWS V14.01,2013-02-18 22:15:00,
2013-02-18 14:18:00,44.0,36.9,29.92,SW,236,2.0,4.0,76,0.00,,---,0.00,234.00,VWS V14.01,2013-02-18 22:18:00,
2013-02-18 14:20:00,44.0,36.6,29.92,SW,234,4.0,6.0,75,0.00,,---,0.00,229.00,VWS V14.01,2013-02-18 22:20:00,
2013-02-18 14:23:00,44.3,37.2,29.92,West,260,2.0,3.0,76,0.00,,---,0.00,243.00,VWS V14.01,2013-02-18 22:23:00,
2013-02-18 14:25:00,44.2,37.1,29.92,West,261,1.0,4.0,76,0.00,,---,0.00,253.00,VWS V14.01,2013-02-18 22:25:00,
2013-02-18 14:28:00,44.1,36.4,29.92,WSW,254,2.0,2.0,74,0.00,,---,0.00,230.00,VWS V14.01,2013-02-18 22:28:00,
2013-02-18 14:30:00,44.1,36.0,29.92,WSW,253,2.0,6.0,73,0.00,,---,0.00,223.00,VWS V14.01,2013-02-18 22:30:00,
2013-02-18 14:33:00,44.1,36.4,29.92,SSW,205,2.0,3.0,74,0.00,,---,0.00,283.00,VWS V14.01,2013-02-18 22:33:00,
2013-02-18 14:35:00,44.1,36.3,29.92,SW,223,3.0,6.0,74,0.00,,---,0.00,301.00,VWS V14.01,2013-02-18 22:35:00,
2013-02-18 14:38:00,44.5,37.1,29.92,SW,230,2.0,2.0,75,0.00,,---,0.00,216.00,VWS V14.01,2013-02-18 22:38:00,
2013-02-18 14:40:00,44.5,37.4,29.92,SW,229,1.0,4.0,76,0.00,,---,0.00,225.00,VWS V14.01,2013-02-18 22:40:00,
2013-02-18 14:43:00,44.6,36.5,29.91,South,186,3.0,5.0,73,0.00,,---,0.00,169.00,VWS V14.01,2013-02-18 22:43:00,
2013-02-18 14:45:00,44.6,37.2,29.92,SW,221,4.0,9.0,75,0.00,,---,0.00,181.00,VWS V14.01,2013-02-18 22:45:00,
2013-02-18 14:48:00,44.3,36.9,29.91,SW,233,6.0,6.0,75,0.00,,---,0.00,125.00,VWS V14.01,2013-02-18 22:48:00,
2013-02-18 14:50:00,44.3,36.5,29.91,West,259,2.0,6.0,74,0.00,,---,0.00,125.00,VWS V14.01,2013-02-18 22:50:00,
2013-02-18 14:53:00,44.3,36.5,29.91,WSW,238,3.0,7.0,74,0.00,,---,0.00,146.00,VWS V14.01,2013-02-18 22:53:00,
2013-02-18 14:55:00,44.3,36.5,29.91,SW,223,7.0,7.0,74,0.00,,---,0.00,135.00,VWS V14.01,2013-02-18 22:55:00,
2013-02-18 14:58:00,44.4,37.0,29.91,South,182,7.0,7.0,75,0.00,,---,0.00,200.00,VWS V14.01,2013-02-18 22:58:00,
2013-02-18 15:00:00,44.4,37.0,29.91,SSW,203,4.0,8.0,75,0.00,,---,0.00,200.00,VWS V14.01,2013-02-18 23:00:00,
2013-02-18 15:03:00,44.5,36.4,29.91,SW,221,4.0,4.0,73,0.00,,---,0.00,199.00,VWS V14.01,2013-02-18 23:03:00,
2013-02-18 15:05:00,44.5,36.4,29.91,SSW,202,4.0,9.0,73,0.00,,---,0.00,199.00,VWS V14.01,2013-02-18 23:05:00,
2013-02-18 15:08:00,44.6,37.2,29.91,SSW,192,4.0,6.0,75,0.00,,---,0.00,137.00,VWS V14.01,2013-02-18 23:08:00,
2013-02-18 15:10:00,44.6,37.5,29.91,SW,215,5.0,5.0,76,0.00,,---,0.00,153.00,VWS V14.01,2013-02-18 23:10:00,
2013-02-18 15:13:00,44.5,36.7,29.91,SW,224,8.0,8.0,74,0.00,,---,0.00,58.00,VWS V14.01,2013-02-18 23:13:00,
2013-02-18 15:15:00,44.5,37.1,29.91,SW,229,6.0,8.0,75,0.00,,---,0.00,63.00,VWS V14.01,2013-02-18 23:15:00,
2013-02-18 15:18:00,44.2,37.1,29.91,WSW,239,7.0,8.0,76,0.00,,---,0.00,54.00,VWS V14.01,2013-02-18 23:18:00,
2013-02-18 15:20:00,44.3,37.2,29.91,SW,236,6.0,10.0,76,0.00,,---,0.00,51.00,VWS V14.01,2013-02-18 23:20:00,
2013-02-18 15:23:00,43.6,37.5,29.91,SSW,208,4.0,7.0,79,0.00,,---,0.00,81.00,VWS V14.01,2013-02-18 23:23:00,
2013-02-18 15:25:00,43.7,37.6,29.91,SW,234,7.0,10.0,79,0.00,,---,0.00,74.00,VWS V14.01,2013-02-18 23:25:00,
2013-02-18 15:28:00,43.1,37.0,29.91,SSW,205,3.0,4.0,79,0.00,,---,0.00,158.00,VWS V14.01,2013-02-18 23:28:00,
2013-02-18 15:30:00,43.1,37.4,29.91,SSW,195,3.0,8.0,80,0.00,,---,0.00,155.00,VWS V14.01,2013-02-18 23:30:00,
2013-02-18 15:33:00,43.1,37.0,29.90,SSW,210,1.0,2.0,79,0.00,,---,0.00,128.00,VWS V14.01,2013-02-18 23:33:00,
2013-02-18 15:35:00,43.1,37.0,29.90,SSW,211,2.0,5.0,79,0.00,,---,0.00,139.00,VWS V14.01,2013-02-18 23:35:00,
2013-02-18 15:38:00,43.0,36.9,29.90,SW,231,2.0,3.0,79,0.00,,---,0.00,93.00,VWS V14.01,2013-02-18 23:38:00,
2013-02-18 15:40:00,43.0,37.3,29.90,SW,231,2.0,3.0,80,0.00,,---,0.00,97.00,VWS V14.01,2013-02-18 23:40:00,
2013-02-18 15:43:00,42.9,37.2,29.90,SW,226,4.0,4.0,80,0.00,,---,0.00,98.00,VWS V14.01,2013-02-18 23:43:00,
2013-02-18 15:45:00,42.9,36.8,29.90,SSW,196,2.0,4.0,79,0.00,,---,0.00,98.00,VWS V14.01,2013-02-18 23:45:00,
2013-02-18 15:48:00,42.9,37.2,29.90,SSW,211,2.0,2.0,80,0.00,,---,0.00,102.00,VWS V14.01,2013-02-18 23:48:00,
2013-02-18 15:50:00,42.9,37.2,29.90,SW,214,1.0,4.0,80,0.00,,---,0.00,100.00,VWS V14.01,2013-02-18 23:50:00,
2013-02-18 15:53:00,43.0,37.3,29.89,SSW,196,0.0,2.0,80,0.00,,---,0.00,102.00,VWS V14.01,2013-02-18 23:53:00,
2013-02-18 15:55:00,43.0,37.3,29.89,SSW,197,0.0,3.0,80,0.00,,---,0.00,100.00,VWS V14.01,2013-02-18 23:55:00,
2013-02-18 15:58:00,43.2,37.5,29.89,South,183,0.0,3.0,80,0.00,,---,0.00,102.00,VWS V14.01,2013-02-18 23:58:00,
2013-02-18 16:00:00,43.2,37.8,29.89,South,173,3.0,3.0,81,0.00,,---,0.00,104.00,VWS V14.01,2013-02-19 00:00:00,
2013-02-18 16:03:00,43.3,37.9,29.89,SSE,162,1.0,3.0,81,0.00,,---,0.00,98.00,VWS V14.01,2013-02-19 00:03:00,
2013-02-18 16:05:00,43.3,37.6,29.89,South,188,2.0,3.0,80,0.00,,---,0.00,102.00,VWS V14.01,2013-02-19 00:05:00,
2013-02-18 16:08:00,43.4,37.7,29.89,SW,219,1.0,2.0,80,0.00,,---,0.00,77.00,VWS V14.01,2013-02-19 00:08:00,
2013-02-18 16:10:00,43.4,37.7,29.89,SW,219,2.0,3.0,80,0.00,,---,0.00,90.00,VWS V14.01,2013-02-19 00:10:00,
2013-02-18 16:13:00,43.4,38.0,29.89,SW,232,0.0,2.0,81,0.00,,---,0.00,53.00,VWS V14.01,2013-02-19 00:13:00,
2013-02-18 16:15:00,43.4,38.0,29.89,SW,229,1.0,2.0,81,0.00,,---,0.00,56.00,VWS V14.01,2013-02-19 00:15:00,
2013-02-18 16:18:00,43.4,38.0,29.89,WSW,257,0.0,1.0,81,0.00,,---,0.00,81.00,VWS V14.01,2013-02-19 00:18:00,
2013-02-18 16:20:00,43.4,38.0,29.89,WSW,258,1.0,2.0,81,0.00,,---,0.00,76.00,VWS V14.01,2013-02-19 00:20:00,
2013-02-18 16:23:00,43.4,38.0,29.89,WSW,245,1.0,3.0,81,0.00,,---,0.00,95.00,VWS V14.01,2013-02-19 00:23:00,
2013-02-18 16:25:00,43.4,38.0,29.89,WSW,258,0.0,2.0,81,0.00,,---,0.00,93.00,VWS V14.01,2013-02-19 00:25:00,
2013-02-18 16:28:00,43.4,38.0,29.88,WSW,244,0.0,0.0,81,0.00,,---,0.00,90.00,VWS V14.01,2013-02-19 00:28:00,
2013-02-18 16:30:00,43.4,38.0,29.88,WSW,245,0.0,3.0,81,0.00,,---,0.00,93.00,VWS V14.01,2013-02-19 00:30:00,
2013-02-18 16:33:00,43.4,38.0,29.88,WSW,245,2.0,2.0,81,0.00,,---,0.00,58.00,VWS V14.01,2013-02-19 00:33:00,
2013-02-18 16:35:00,43.4,38.0,29.88,WSW,244,0.0,2.0,81,0.00,,---,0.00,62.00,VWS V14.01,2013-02-19 00:35:00,
2013-02-18 16:38:00,43.5,38.1,29.88,WSW,245,0.0,1.0,81,0.00,,---,0.00,76.00,VWS V14.01,2013-02-19 00:38:00,
2013-02-18 16:40:00,43.5,38.1,29.88,WSW,245,1.0,2.0,81,0.00,,---,0.00,67.00,VWS V14.01,2013-02-19 00:40:00,
2013-02-18 16:43:00,43.6,38.2,29.87,WSW,244,0.0,0.0,81,0.00,,---,0.00,60.00,VWS V14.01,2013-02-19 00:43:00,
2013-02-18 16:45:00,43.5,38.1,29.87,WSW,244,0.0,2.0,81,0.00,,---,0.00,72.00,VWS V14.01,2013-02-19 00:45:00,
2013-02-18 16:48:00,43.6,37.8,29.87,WSW,244,0.0,0.0,80,0.00,,---,0.00,40.00,VWS V14.01,2013-02-19 00:48:00,
2013-02-18 16:50:00,43.6,37.8,29.87,WSW,244,0.0,1.0,80,0.00,,---,0.00,46.00,VWS V14.01,2013-02-19 00:50:00,
2013-02-18 16:53:00,43.5,37.8,29.87,WSW,245,0.0,0.0,80,0.00,,---,0.00,35.00,VWS V14.01,2013-02-19 00:53:00,
2013-02-18 16:55:00,43.5,37.8,29.87,WSW,245,0.0,2.0,80,0.00,,---,0.00,37.00,VWS V14.01,2013-02-19 00:55:00,
2013-02-18 16:58:00,43.4,37.7,29.87,WSW,244,0.0,0.0,80,0.00,,---,0.00,35.00,VWS V14.01,2013-02-19 00:58:00,
2013-02-18 17:00:00,43.4,37.7,29.87,WSW,245,0.0,0.0,80,0.00,,---,0.00,35.00,VWS V14.01,2013-02-19 01:00:00,
2013-02-18 17:03:00,43.5,38.1,29.87,WSW,245,0.0,0.0,81,0.00,,---,0.00,35.00,VWS V14.01,2013-02-19 01:03:00,
2013-02-18 17:05:00,42.6,36.9,29.85,South,177,0.0,0.0,80,0.00,,---,0.00,0.00,VWS V14.01,2013-02-19 01:05:00,
2013-02-18 17:08:00,43.6,38.2,29.86,WSW,245,0.0,0.0,81,0.00,,---,0.00,32.00,VWS V14.01,2013-02-19 01:08:00,
2013-02-18 17:10:00,43.6,38.2,29.87,WSW,244,0.0,0.0,81,0.00,,---,0.00,33.00,VWS V14.01,2013-02-19 01:10:00,
2013-02-18 17:13:00,43.7,38.3,29.86,WSW,245,0.0,0.0,81,0.00,,---,0.00,23.00,VWS V14.01,2013-02-19 01:13:00,
2013-02-18 17:15:00,43.7,38.3,29.86,WSW,245,0.0,0.0,81,0.00,,---,0.00,25.00,VWS V14.01,2013-02-19 01:15:00,
2013-02-18 17:18:00,43.6,38.2,29.86,WSW,245,0.0,0.0,81,0.00,,---,0.00,21.00,VWS V14.01,2013-02-19 01:18:00,
2013-02-18 17:20:00,43.7,38.3,29.86,WSW,244,0.0,0.0,81,0.00,,---,0.00,25.00,VWS V14.01,2013-02-19 01:20:00,
2013-02-18 17:23:00,43.6,38.2,29.86,WSW,244,0.0,0.0,81,0.00,,---,0.00,12.00,VWS V14.01,2013-02-19 01:23:00,
2013-02-18 17:25:00,43.6,38.2,29.86,WSW,245,0.0,0.0,81,0.00,,---,0.00,14.00,VWS V14.01,2013-02-19 01:25:00,
2013-02-18 17:29:00,43.5,37.4,29.86,WSW,245,0.0,0.0,79,0.00,,---,0.00,11.00,VWS V14.01,2013-02-19 01:29:00,
2013-02-18 17:30:00,42.2,36.8,29.84,South,177,0.0,0.0,81,0.00,,---,0.00,0.00,VWS V14.01,2013-02-19 01:30:00,
2013-02-18 17:34:00,43.4,37.3,29.86,WSW,245,0.0,0.0,79,0.00,,---,0.00,5.00,VWS V14.01,2013-02-19 01:34:00,
2013-02-18 17:35:00,43.4,37.3,29.86,WSW,245,0.0,0.0,79,0.00,,---,0.00,5.00,VWS V14.01,2013-02-19 01:35:00,
2013-02-18 17:39:00,43.3,37.2,29.85,WSW,244,0.0,0.0,79,0.00,,---,0.00,0.00,VWS V14.01,2013-02-19 01:39:00,
2013-02-18 17:40:00,43.3,37.2,29.86,WSW,245,0.0,0.0,79,0.00,,---,0.00,0.00,VWS V14.01,2013-02-19 01:40:00,
2013-02-18 17:44:00,43.2,37.1,29.85,WSW,244,0.0,0.0,79,0.00,,---,0.00,0.00,VWS V14.01,2013-02-19 01:44:00,
2013-02-18 17:45:00,42.2,36.8,29.84,South,177,0.0,0.0,81,0.00,,---,0.00,0.00,VWS V14.01,2013-02-19 01:45:00,
2013-02-18 17:49:00,43.0,37.3,29.85,WSW,245,0.0,0.0,80,0.00,,---,0.00,0.00,VWS V14.01,2013-02-19 01:49:00,
2013-02-18 17:50:00,43.1,37.4,29.85,WSW,244,0.0,0.0,80,0.00,,---,0.00,0.00,VWS V14.01,2013-02-19 01:50:00,
2013-02-18 17:54:00,42.9,37.2,29.85,South,177,0.0,1.0,80,0.00,,---,0.00,0.00,VWS V14.01,2013-02-19 01:54:00,
2013-02-18 17:55:00,42.9,37.2,29.85,WSW,244,0.0,0.0,80,0.00,,---,0.00,0.00,VWS V14.01,2013-02-19 01:55:00,
2013-02-18 17:59:00,42.7,37.0,29.85,South,177,0.0,0.0,80,0.00,,---,0.00,0.00,VWS V14.01,2013-02-19 01:59:00,
2013-02-18 18:00:00,42.8,37.1,29.85,South,177,0.0,1.0,80,0.00,,---,0.00,0.00,VWS V14.01,2013-02-19 02:00:00,
2013-02-18 18:04:00,42.6,37.2,29.85,South,177,0.0,0.0,81,0.00,,---,0.00,0.00,VWS V14.01,2013-02-19 02:04:00,
2013-02-18 18:05:00,42.6,36.9,29.85,South,177,0.0,0.0,80,0.00,,---,0.00,0.00,VWS V14.01,2013-02-19 02:05:00,
2013-02-18 18:09:00,42.5,37.1,29.85,South,177,0.0,0.0,81,0.00,,---,0.00,0.00,VWS V14.01,2013-02-19 02:09:00,
2013-02-18 18:10:00,42.5,37.1,29.85,South,177,0.0,0.0,81,0.00,,---,0.00,0.00,VWS V14.01,2013-02-19 02:10:00,
2013-02-18 18:14:00,42.4,37.0,29.84,South,177,0.0,0.0,81,0.00,,---,0.00,0.00,VWS V14.01,2013-02-19 02:14:00,
2013-02-18 18:15:00,42.4,37.0,29.85,South,177,0.0,0.0,81,0.00,,---,0.00,0.00,VWS V14.01,2013-02-19 02:15:00,
2013-02-18 18:19:00,42.3,36.6,29.84,South,177,0.0,0.0,80,0.00,,---,0.00,0.00,VWS V14.01,2013-02-19 02:19:00,
2013-02-18 18:20:00,42.3,36.6,29.85,South,177,0.0,0.0,80,0.00,,---,0.00,0.00,VWS V14.01,2013-02-19 02:20:00,
2013-02-18 18:24:00,42.2,36.8,29.84,South,177,0.0,0.0,81,0.00,,---,0.00,0.00,VWS V14.01,2013-02-19 02:24:00,
2013-02-18 18:25:00,42.3,36.9,29.84,South,177,0.0,0.0,81,0.00,,---,0.00,0.00,VWS V14.01,2013-02-19 02:25:00,
2013-02-18 18:29:00,42.1,36.7,29.84,South,177,0.0,0.0,81,0.00,,---,0.00,0.00,VWS V14.01,2013-02-19 02:29:00,
2013-02-18 18:30:00,42.2,36.8,29.84,South,177,0.0,0.0,81,0.00,,---,0.00,0.00,VWS V14.01,2013-02-19 02:30:00,
2013-02-18 18:34:00,42.2,36.8,29.84,South,177,0.0,0.0,81,0.00,,---,0.00,0.00,VWS V14.01,2013-02-19 02:34:00,
2013-02-18 18:35:00,42.2,36.8,29.84,South,177,0.0,0.0,81,0.00,,---,0.00,0.00,VWS V14.01,2013-02-19 02:35:00,
2013-02-18 18:39:00,42.2,36.8,29.84,South,177,0.0,0.0,81,0.00,,---,0.00,0.00,VWS V14.01,2013-02-19 02:39:00,
2013-02-18 18:40:00,42.2,36.8,29.84,South,177,0.0,0.0,81,0.00,,---,0.00,0.00,VWS V14.01,2013-02-19 02:40:00,
2013-02-18 18:44:00,42.2,36.8,29.84,South,177,0.0,0.0,81,0.00,,---,0.00,0.00,VWS V14.01,2013-02-19 02:44:00,
2013-02-18 18:45:00,42.2,36.8,29.84,South,177,0.0,0.0,81,0.00,,---,0.00,0.00,VWS V14.01,2013-02-19 02:45:00,
2013-02-18 18:49:00,42.1,36.7,29.84,South,177,0.0,0.0,81,0.00,,---,0.00,0.00,VWS V14.01,2013-02-19 02:49:00,
2013-02-18 18:50:00,42.2,36.8,29.84,South,177,0.0,0.0,81,0.00,,---,0.00,0.00,VWS V14.01,2013-02-19 02:50:00,
2013-02-18 18:54:00,42.1,36.7,29.83,South,177,0.0,0.0,81,0.00,,---,0.00,0.00,VWS V14.01,2013-02-19 02:54:00,
2013-02-18 18:55:00,42.1,36.7,29.83,South,177,0.0,0.0,81,0.00,,---,0.00,0.00,VWS V14.01,2013-02-19 02:55:00,
2013-02-18 18:59:00,42.0,36.9,29.83,South,177,0.0,0.0,82,0.00,,---,0.00,0.00,VWS V14.01,2013-02-19 02:59:00,
2013-02-18 19:00:00,42.1,37.0,29.83,South,177,0.0,0.0,82,0.00,,---,0.00,0.00,VWS V14.01,2013-02-19 03:00:00,
2013-02-18 19:04:00,41.9,36.8,29.83,South,177,0.0,1.0,82,0.00,,---,0.00,0.00,VWS V14.01,2013-02-19 03:04:00,
2013-02-18 19:05:00,42.0,36.9,29.83,South,177,0.0,1.0,82,0.00,,---,0.00,0.00,VWS V14.01,2013-02-19 03:05:00,
2013-02-18 19:09:00,41.9,37.1,29.83,SSE,149,0.0,1.0,83,0.00,,---,0.00,0.00,VWS V14.01,2013-02-19 03:09:00,
2013-02-18 19:10:00,41.9,37.1,29.83,SSE,150,0.0,1.0,83,0.00,,---,0.00,0.00,VWS V14.01,2013-02-19 03:10:00,
2013-02-18 19:14:00,41.9,37.1,29.83,SE,124,1.0,1.0,83,0.00,,---,0.00,0.00,VWS V14.01,2013-02-19 03:14:00,
2013-02-18 19:15:00,41.9,37.1,29.83,SE,126,1.0,1.0,83,0.00,,---,0.00,0.00,VWS V14.01,2013-02-19 03:15:00,
2013-02-18 19:19:00,41.9,37.1,29.83,ESE,120,0.0,0.0,83,0.00,,---,0.00,0.00,VWS V14.01,2013-02-19 03:19:00,
2013-02-18 19:20:00,41.9,37.1,29.83,ESE,120,0.0,1.0,83,0.00,,---,0.00,0.00,VWS V14.01,2013-02-19 03:20:00,
2013-02-18 19:24:00,41.9,37.1,29.83,ESE,121,0.0,1.0,83,0.00,,---,0.00,0.00,VWS V14.01,2013-02-19 03:24:00,
2013-02-18 19:25:00,41.9,37.1,29.83,ESE,121,0.0,0.0,83,0.00,,---,0.00,0.00,VWS V14.01,2013-02-19 03:25:00,
2013-02-18 19:29:00,41.8,37.0,29.83,ESE,120,0.0,0.0,83,0.00,,---,0.00,0.00,VWS V14.01,2013-02-19 03:29:00,
2013-02-18 19:30:00,41.9,37.1,29.83,ESE,121,0.0,1.0,83,0.00,,---,0.00,0.00,VWS V14.01,2013-02-19 03:30:00,
2013-02-18 19:34:00,41.8,37.0,29.83,ESE,120,0.0,0.0,83,0.00,,---,0.00,0.00,VWS V14.01,2013-02-19 03:34:00,
2013-02-18 19:35:00,41.8,37.0,29.83,ESE,121,0.0,0.0,83,0.00,,---,0.00,0.00,VWS V14.01,2013-02-19 03:35:00,
2013-02-18 19:39:00,41.8,37.0,29.83,ESE,121,0.0,0.0,83,0.00,,---,0.00,0.00,VWS V14.01,2013-02-19 03:39:00,
2013-02-18 19:40:00,41.8,37.0,29.83,ESE,120,0.0,0.0,83,0.00,,---,0.00,0.00,VWS V14.01,2013-02-19 03:40:00,
2013-02-18 19:44:00,41.8,37.0,29.82,ESE,120,0.0,0.0,83,0.00,,---,0.00,0.00,VWS V14.01,2013-02-19 03:44:00,
2013-02-18 19:45:00,41.3,37.1,29.81,East,82,0.0,2.0,85,0.00,,---,0.00,0.00,VWS V14.01,2013-02-19 03:45:00,
2013-02-18 19:49:00,41.7,36.9,29.82,ESE,121,0.0,0.0,83,0.00,,---,0.00,0.00,VWS V14.01,2013-02-19 03:49:00,
2013-02-18 19:50:00,41.7,36.9,29.82,ESE,121,0.0,0.0,83,0.00,,---,0.00,0.00,VWS V14.01,2013-02-19 03:50:00,
2013-02-18 19:54:00,41.6,36.8,29.82,ESE,121,0.0,0.0,83,0.00,,---,0.00,0.00,VWS V14.01,2013-02-19 03:54:00,
2013-02-18 19:55:00,41.7,36.9,29.82,ESE,121,0.0,0.0,83,0.00,,---,0.00,0.00,VWS V14.01,2013-02-19 03:55:00,
2013-02-18 19:59:00,41.6,37.1,29.82,ESE,121,0.0,0.0,84,0.00,,---,0.00,0.00,VWS V14.01,2013-02-19 03:59:00,
2013-02-18 20:00:00,41.6,37.1,29.82,ESE,121,0.0,0.0,84,0.00,,---,0.00,0.00,VWS V14.01,2013-02-19 04:00:00,
2013-02-18 20:04:00,41.5,37.0,29.82,ESE,121,0.0,1.0,84,0.00,,---,0.00,0.00,VWS V14.01,2013-02-19 04:04:00,
2013-02-18 20:05:00,41.5,37.0,29.82,ESE,121,0.0,0.0,84,0.00,,---,0.00,0.00,VWS V14.01,2013-02-19 04:05:00,
2013-02-18 20:09:00,41.5,37.3,29.82,ESE,121,0.0,0.0,85,0.00,,---,0.00,0.00,VWS V14.01,2013-02-19 04:09:00,
2013-02-18 20:10:00,41.5,37.0,29.82,ESE,120,0.0,1.0,84,0.00,,---,0.00,0.00,VWS V14.01,2013-02-19 04:10:00,
2013-02-18 20:14:00,41.5,37.3,29.82,ESE,121,0.0,0.0,85,0.00,,---,0.00,0.00,VWS V14.01,2013-02-19 04:14:00,
2013-02-18 20:15:00,41.5,37.0,29.82,ESE,121,0.0,0.0,84,0.00,,---,0.00,0.00,VWS V14.01,2013-02-19 04:15:00,
2013-02-18 20:19:00,41.5,37.3,29.82,East,80,1.0,3.0,85,0.00,,---,0.00,0.00,VWS V14.01,2013-02-19 04:19:00,
2013-02-18 20:20:00,41.5,37.3,29.82,ESE,120,0.0,1.0,85,0.00,,---,0.00,0.00,VWS V14.01,2013-02-19 04:20:00,
2013-02-18 20:25:00,41.4,37.2,29.81,East,85,1.0,1.0,85,0.00,,---,0.00,0.00,VWS V14.01,2013-02-19 04:25:00,
2013-02-18 20:30:00,41.4,37.2,29.82,East,82,1.0,2.0,85,0.00,,---,0.00,0.00,VWS V14.01,2013-02-19 04:30:00,
2013-02-18 20:35:00,41.3,37.1,29.81,East,82,0.0,1.0,85,0.00,,---,0.00,0.00,VWS V14.01,2013-02-19 04:35:00,
2013-02-18 20:40:00,41.3,37.1,29.81,East,82,0.0,1.0,85,0.00,,---,0.00,0.00,VWS V14.01,2013-02-19 04:40:00,
2013-02-18 20:45:00,41.3,36.8,29.81,ENE,78,0.0,2.0,84,0.00,,---,0.00,0.00,VWS V14.01,2013-02-19 04:45:00,
2013-02-18 20:50:00,41.3,36.8,29.81,ENE,78,0.0,1.0,84,0.00,,---,0.00,0.00,VWS V14.01,2013-02-19 04:50:00,
2013-02-18 20:55:00,41.3,36.8,29.81,East,88,0.0,2.0,84,0.00,,---,0.00,0.00,VWS V14.01,2013-02-19 04:55:00,
2013-02-18 21:00:00,41.3,37.1,29.81,East,92,0.0,1.0,85,0.00,,---,0.00,0.00,VWS V14.01,2013-02-19 05:00:00,
2013-02-18 21:01:00,41.3,37.1,29.81,East,92,0.0,1.0,85,0.00,,---,0.00,0.00,VWS V14.01,2013-02-19 05:01:00,
2013-02-18 21:05:00,41.3,37.1,29.81,East,92,0.0,1.0,85,0.00,,---,0.00,0.00,VWS V14.01,2013-02-19 05:05:00,
2013-02-18 21:06:00,41.3,37.1,29.81,East,92,1.0,1.0,85,0.00,,---,0.00,0.00,VWS V14.01,2013-02-19 05:06:00,
2013-02-18 21:10:00,41.3,37.1,29.80,East,92,1.0,1.0,85,0.00,,---,0.00,0.00,VWS V14.01,2013-02-19 05:10:00,
2013-02-18 21:11:00,41.2,36.7,29.80,East,92,0.0,1.0,84,0.00,,---,0.00,0.00,VWS V14.01,2013-02-19 05:11:00,
2013-02-18 21:15:00,41.3,36.8,29.80,East,92,0.0,1.0,84,0.00,,---,0.00,0.00,VWS V14.01,2013-02-19 05:15:00,
2013-02-18 21:16:00,41.2,36.7,29.80,East,101,1.0,2.0,84,0.00,,---,0.00,0.00,VWS V14.01,2013-02-19 05:16:00,
2013-02-18 21:20:00,41.1,36.6,29.80,East,98,0.0,2.0,84,0.00,,---,0.00,0.00,VWS V14.01,2013-02-19 05:20:00,
2013-02-18 21:21:00,41.1,36.6,29.80,East,96,0.0,2.0,84,0.00,,---,0.00,0.00,VWS V14.01,2013-02-19 05:21:00,
2013-02-18 21:25:00,41.1,36.6,29.80,East,96,0.0,2.0,84,0.00,,---,0.00,0.00,VWS V14.01,2013-02-19 05:25:00,
2013-02-18 21:26:00,41.0,36.8,29.80,East,96,0.0,0.0,85,0.00,,---,0.00,0.00,VWS V14.01,2013-02-19 05:26:00,
2013-02-18 21:30:00,41.0,36.8,29.80,East,96,0.0,0.0,85,0.00,,---,0.00,0.00,VWS V14.01,2013-02-19 05:30:00,
2013-02-18 21:31:00,40.9,36.5,29.80,East,96,0.0,0.0,84,0.00,,---,0.00,0.00,VWS V14.01,2013-02-19 05:31:00,
2013-02-18 21:35:00,40.9,36.5,29.80,East,96,0.0,0.0,84,0.00,,---,0.00,0.00,VWS V14.01,2013-02-19 05:35:00,
2013-02-18 21:36:00,40.9,36.5,29.80,East,96,0.0,0.0,84,0.00,,---,0.00,0.00,VWS V14.01,2013-02-19 05:36:00,
2013-02-18 21:40:00,40.9,36.8,29.80,East,96,0.0,0.0,85,0.00,,---,0.00,0.00,VWS V14.01,2013-02-19 05:40:00,
2013-02-18 21:41:00,40.8,36.7,29.80,East,96,0.0,0.0,85,0.00,,---,0.00,0.00,VWS V14.01,2013-02-19 05:41:00,
2013-02-18 21:45:00,40.7,36.5,29.80,East,96,0.0,0.0,85,0.00,,---,0.00,0.00,VWS V14.01,2013-02-19 05:45:00,
2013-02-18 21:46:00,40.7,36.5,29.80,East,96,0.0,0.0,85,0.00,,---,0.00,0.00,VWS V14.01,2013-02-19 05:46:00,
2013-02-18 21:50:00,40.7,36.5,29.80,East,96,0.0,0.0,85,0.00,,---,0.00,0.00,VWS V14.01,2013-02-19 05:50:00,
2013-02-18 21:51:00,40.6,36.5,29.80,East,96,0.0,0.0,85,0.00,,---,0.00,0.00,VWS V14.01,2013-02-19 05:51:00,
2013-02-18 21:55:00,40.6,36.8,29.80,East,96,0.0,0.0,86,0.00,,---,0.00,0.00,VWS V14.01,2013-02-19 05:55:00,
2013-02-18 21:56:00,40.6,36.8,29.80,East,96,0.0,0.0,86,0.00,,---,0.00,0.00,VWS V14.01,2013-02-19 05:56:00,
2013-02-18 22:00:00,38.8,36.1,29.78,East,96,0.0,0.0,90,0.00,,---,0.00,0.00,VWS V14.01,2013-02-19 06:00:00,
2013-02-18 22:01:00,40.5,36.7,29.80,East,96,0.0,0.0,86,0.00,,---,0.00,0.00,VWS V14.01,2013-02-19 06:01:00,
2013-02-18 22:05:00,40.5,36.7,29.80,East,96,0.0,0.0,86,0.00,,---,0.00,0.00,VWS V14.01,2013-02-19 06:05:00,
2013-02-18 22:06:00,40.4,36.8,29.80,East,96,0.0,0.0,87,0.00,,---,0.00,0.00,VWS V14.01,2013-02-19 06:06:00,
2013-02-18 22:10:00,40.4,36.8,29.80,East,96,0.0,0.0,87,0.00,,---,0.00,0.00,VWS V14.01,2013-02-19 06:10:00,
2013-02-18 22:11:00,40.3,36.8,29.79,East,96,0.0,0.0,87,0.00,,---,0.00,0.00,VWS V14.01,2013-02-19 06:11:00,
2013-02-18 22:15:00,40.3,36.8,29.79,East,96,0.0,0.0,87,0.00,,---,0.00,0.00,VWS V14.01,2013-02-19 06:15:00,
2013-02-18 22:16:00,40.3,36.8,29.79,East,96,0.0,0.0,87,0.00,,---,0.00,0.00,VWS V14.01,2013-02-19 06:16:00,
2013-02-18 22:20:00,40.3,36.8,29.79,East,96,0.0,0.0,87,0.00,,---,0.00,0.00,VWS V14.01,2013-02-19 06:20:00,
2013-02-18 22:21:00,40.1,36.5,29.79,East,96,0.0,0.0,87,0.00,,---,0.00,0.00,VWS V14.01,2013-02-19 06:21:00,
2013-02-18 22:25:00,40.1,36.5,29.79,East,96,0.0,0.0,87,0.00,,---,0.00,0.00,VWS V14.01,2013-02-19 06:25:00,
2013-02-18 22:26:00,39.9,36.6,29.79,East,96,0.0,0.0,88,0.00,,---,0.00,0.00,VWS V14.01,2013-02-19 06:26:00,
2013-02-18 22:30:00,39.9,36.6,29.79,East,96,0.0,0.0,88,0.00,,---,0.00,0.00,VWS V14.01,2013-02-19 06:30:00,
2013-02-18 22:31:00,39.7,36.4,29.79,East,96,0.0,0.0,88,0.00,,---,0.00,0.00,VWS V14.01,2013-02-19 06:31:00,
2013-02-18 22:35:00,39.7,36.4,29.79,East,96,0.0,0.0,88,0.00,,---,0.00,0.00,VWS V14.01,2013-02-19 06:35:00,
2013-02-18 22:36:00,39.6,36.3,29.79,East,96,0.0,0.0,88,0.00,,---,0.00,0.00,VWS V14.01,2013-02-19 06:36:00,
2013-02-18 22:40:00,39.6,36.3,29.79,East,96,0.0,0.0,88,0.00,,---,0.00,0.00,VWS V14.01,2013-02-19 06:40:00,
2013-02-18 22:41:00,39.4,36.4,29.79,East,96,0.0,0.0,89,0.00,,---,0.00,0.00,VWS V14.01,2013-02-19 06:41:00,
2013-02-18 22:45:00,39.4,36.4,29.79,East,96,0.0,0.0,89,0.00,,---,0.00,0.00,VWS V14.01,2013-02-19 06:45:00,
2013-02-18 22:46:00,39.2,36.2,29.79,East,96,2.0,2.0,89,0.00,,---,0.00,0.00,VWS V14.01,2013-02-19 06:46:00,
2013-02-18 22:50:00,39.1,36.1,29.79,East,96,0.0,2.0,89,0.00,,---,0.00,0.00,VWS V14.01,2013-02-19 06:50:00,
2013-02-18 22:51:00,38.9,36.2,29.79,East,96,0.0,0.0,90,0.00,,---,0.00,0.00,VWS V14.01,2013-02-19 06:51:00,
2013-02-18 22:55:00,38.9,36.2,29.79,East,96,0.0,0.0,90,0.00,,---,0.00,0.00,VWS V14.01,2013-02-19 06:55:00,
2013-02-18 22:56:00,38.8,36.1,29.78,East,96,0.0,0.0,90,0.00,,---,0.00,0.00,VWS V14.01,2013-02-19 06:56:00,
2013-02-18 23:00:00,38.8,36.1,29.78,East,96,0.0,0.0,90,0.00,,---,0.00,0.00,VWS V14.01,2013-02-19 07:00:00,
2013-02-18 23:01:00,38.7,36.0,29.78,East,96,0.0,0.0,90,0.00,,---,0.00,0.00,VWS V14.01,2013-02-19 07:01:00,
2013-02-18 23:05:00,38.7,36.0,29.79,East,95,0.0,0.0,90,0.00,,---,0.00,0.00,VWS V14.01,2013-02-19 07:05:00,
2013-02-18 23:06:00,38.7,36.0,29.79,East,96,0.0,0.0,90,0.00,,---,0.00,0.00,VWS V14.01,2013-02-19 07:06:00,
2013-02-18 23:10:00,38.7,36.0,29.78,East,96,0.0,0.0,90,0.00,,---,0.00,0.00,VWS V14.01,2013-02-19 07:10:00,
2013-02-18 23:11:00,38.7,36.3,29.79,East,96,0.0,0.0,91,0.00,,---,0.00,0.00,VWS V14.01,2013-02-19 07:11:00,
2013-02-18 23:15:00,38.7,36.3,29.78,East,96,0.0,0.0,91,0.00,,---,0.00,0.00,VWS V14.01,2013-02-19 07:15:00,
2013-02-18 23:16:00,38.6,36.2,29.79,East,96,0.0,0.0,91,0.00,,---,0.00,0.00,VWS V14.01,2013-02-19 07:16:00,
2013-02-18 23:20:00,38.6,36.2,29.79,East,96,0.0,0.0,91,0.00,,---,0.00,0.00,VWS V14.01,2013-02-19 07:20:00,
2013-02-18 23:21:00,38.6,36.2,29.79,East,96,0.0,0.0,91,0.00,,---,0.00,0.00,VWS V14.01,2013-02-19 07:21:00,
2013-02-18 23:25:00,38.6,36.2,29.79,East,96,0.0,0.0,91,0.00,,---,0.00,0.00,VWS V14.01,2013-02-19 07:25:00,
2013-02-18 23:26:00,38.6,36.2,29.79,East,95,0.0,0.0,91,0.00,,---,0.00,0.00,VWS V14.01,2013-02-19 07:26:00,
2013-02-18 23:30:00,38.7,36.3,29.79,East,96,0.0,0.0,91,0.00,,---,0.00,0.00,VWS V14.01,2013-02-19 07:30:00,
2013-02-18 23:31:00,38.7,36.3,29.79,East,96,0.0,0.0,91,0.00,,---,0.00,0.00,VWS V14.01,2013-02-19 07:31:00,
2013-02-18 23:35:00,38.6,36.2,29.79,East,96,0.0,1.0,91,0.00,,---,0.00,0.00,VWS V14.01,2013-02-19 07:35:00,
2013-02-18 23:36:00,38.7,36.3,29.79,East,96,0.0,0.0,91,0.00,,---,0.00,0.00,VWS V14.01,2013-02-19 07:36:00,
2013-02-18 23:40:00,38.7,36.3,29.79,East,96,0.0,0.0,91,0.00,,---,0.00,0.00,VWS V14.01,2013-02-19 07:40:00,
2013-02-18 23:41:00,38.6,36.2,29.79,East,96,0.0,0.0,91,0.00,,---,0.00,0.00,VWS V14.01,2013-02-19 07:41:00,
2013-02-18 23:45:00,38.6,36.2,29.79,East,96,0.0,0.0,91,0.00,,---,0.00,0.00,VWS V14.01,2013-02-19 07:45:00,
2013-02-18 23:46:00,38.6,36.2,29.79,East,96,0.0,0.0,91,0.00,,---,0.00,0.00,VWS V14.01,2013-02-19 07:46:00,
2013-02-18 23:50:00,38.6,36.2,29.79,East,96,0.0,0.0,91,0.00,,---,0.00,0.00,VWS V14.01,2013-02-19 07:50:00,
2013-02-18 23:51:00,38.5,36.1,29.79,East,96,0.0,0.0,91,0.00,,---,0.00,0.00,VWS V14.01,2013-02-19 07:51:00,
2013-02-18 23:55:00,38.4,36.0,29.78,East,95,1.0,2.0,91,0.00,,---,0.00,0.00,VWS V14.01,2013-02-19 07:55:00,
2013-02-18 23:56:00,38.3,36.2,29.78,East,96,0.0,1.0,92,0.00,,---,0.00,0.00,VWS V14.01,2013-02-19 07:56:00,